Regional Weather Roundup
Issued by NWS Glasgow, MT

Home | Current Version | Previous Version | Text Only | Print | Product List | Glossary On
Versions: 1 2 3 4 5 6 7 8 9 10 11 12 13 14 15 16 17 18 19 20 21 22 23 24 25 26 27 28 29 30 31 32 33 34 35 36 37 38 39 40 41 42 43 44 45 46 47 48 49 50
000
ASUS45 KGGW 231615
RWRGGW
HOURLY REGIONAL WEATHER ROUNDUP FOR NORTHEAST MONTANA
NATIONAL WEATHER SERVICE GLASGOW MONTANA
900 AM MST MON JAN 23 2017

NOTE: "FAIR" INDICATES FEW OR NO CLOUDS BELOW 12,000 FEET WITH NO
SIGNIFICANT WEATHER AND/OR OBSTRUCTIONS TO VISISBILITY.

NORTHEAST MONTANA


CITY           SKY/WX    TMP DP  RH WIND       PRES   REMARKS
GLASGOW        LGT SNOW  26  24  92 W8        29.76R FOG
PLENTYWOOD       N/A     22  20  92 NW7         N/A
WOLF POINT     LGT SNOW  28  25  88 E6        29.78F FOG
JORDAN           N/A     24  21  88 E8        29.73R
WINNETT          N/A     25  25 100 W1          N/A
SIDNEY         CLOUDY    28  24  85 N7        29.78R
GLENDIVE       CLOUDY    23  21  92 E5        29.76R
MALTA            N/A     25  24  96 NE7         N/A
SCOBEY           N/A     21  14  74 W9        29.76R

FORT PECK REPORTS


CITY           SKY/WX    TMP DP  RH WIND       PRES   REMARKS
FORT PECK        N/A     27  27 100 N2          N/A
THE PINES        N/A     28  25  88 CALM        N/A

SOUTHEAST MONTANA


CITY           SKY/WX    TMP DP  RH WIND       PRES   REMARKS
BILLINGS       CLOUDY    17  14  88 CALM      29.68R
MILES CITY     FOG       21  18  88 NE9       29.73R VSB 1/2
BAKER          FOG       19  17  92 SE10      29.72R VSB 1/2
LIVINGSTON     CLOUDY    16  11  80 VRB5      29.64R

CENTRAL MONTANA


CITY           SKY/WX    TMP DP  RH WIND       PRES   REMARKS
HAVRE          LGT SNOW  23  21  92 N7        29.79R FOG
LEWISTOWN      CLOUDY    22  20  92 W8        29.69S
GREAT FALLS    CLOUDY    22  20  92 N7        29.73R
CUT BANK       LGT SNOW  18  16  92 N8        29.75R FOG
HELENA         CLOUDY    24  18  77 NW7       29.70R
BUTTE          CLOUDY     0  -4  83 CALM      29.62R FOG
BOZEMAN        FOG       17  16  95 S6        29.67R VSB<1/4

WESTERN MONTANA


CITY           SKY/WX    TMP DP  RH WIND       PRES   REMARKS
MISSOULA       FOG       22  22 100 E3        29.70R VSB<1/4
KALISPELL      NOT AVBL

NORTH DAKOTA


CITY           SKY/WX    TMP DP  RH WIND       PRES   REMARKS
WILLISTON      CLOUDY    24  21  88 N6        29.80R
DICKINSON      CLOUDY    23  19  85 S7        29.72R
MINOT          CLOUDY    26  22  84 W6        29.76S
BISMARCK       CLOUDY    30  23  75 CALM      29.80S

SOUTHERN SASKATCHEWAN


CITY           SKY/WX    TMP DP  RH WIND       PRES   REMARKS
REGINA         CLOUDY    18  14  86 NW16      29.77R
MOOSE JAW      CLOUDY    19  18  93 NW12      29.79S
ESTEVAN        FRZ DRZL  21  18  86 W12       29.77R
SWIFT CURRENT  CLOUDY    14  14 100 NW15      29.75R WCI  -1




USA.gov is the U.S. government's official web portal to all federal, state and local government web resources and services.